2022/01/07 23:28:35+0000,-40.25,-45.73,-32.90,-53.45,-52.26,-52.09
2022/01/07 23:29:27+0000,-40.99,-45.50,-33.32,-48.41,-52.47,-52.21
2022/01/07 23:30:20+0000,-40.83,-47.48,-33.67,-52.22,-52.71,-51.32
2022/01/07 23:31:18+0000,-40.99,-47.10,-33.25,-12.09,-51.85,-51.74
2022/01/07 23:32:10+0000,-40.34,-46.54,-33.23,-11.28,-51.74,-51.14
2022/01/07 23:33:02+0000,-39.99,-46.58,-33.24,-50.71,-51.19,-51.58
2022/01/07 23:33:54+0000,-40.41,-45.83,-33.53,-49.52,-52.04,-51.83
2022/01/07 23:34:46+0000,-40.11,-47.61,-33.41,-11.74,-52.16,-51.32
2022/01/07 23:35:38+0000,-40.00,-47.54,-33.23,-11.70,-51.97,-51.52
2022/01/07 23:36:30+0000,-40.06,-45.91,-32.95,-49.80,-52.44,-52.07
2022/01/07 23:37:22+0000,-40.10,-47.57,-33.42,-48.62,-51.45,-51.80
2022/01/07 23:38:14+0000,-40.74,-45.96,-33.08,-11.61,-51.65,-51.21
2022/01/07 23:39:06+0000,-40.74,-47.35,-32.56,-12.56,-52.63,-51.87
2022/01/07 23:39:59+0000,-39.95,-46.62,-33.57,-49.97,-52.82,-51.36
2022/01/07 23:40:51+0000,-40.02,-46.16,-33.62,-49.36,-52.07,-51.59
2022/01/07 23:41:49+0000,-40.42,-46.54,-33.38,-51.89,-52.14,-51.67
2022/01/07 23:42:41+0000,-40.03,-46.26,-32.82,-51.26,-52.21,-51.39
2022/01/07 23:43:33+0000,-40.15,-45.58,-32.81,-51.00,-52.41,-51.79
2022/01/07 23:44:25+0000,-39.81,-46.88,-33.21,-50.79,-52.28,-51.99
2022/01/07 23:45:17+0000,-40.65,-46.42,-33.74,-12.35,-52.39,-51.80
2022/01/07 23:46:09+0000,-39.57,-47.06,-32.29,-11.79,-52.47,-51.98
2022/01/07 23:47:01+0000,-40.15,-46.47,-33.00,-50.52,-52.52,-51.86
2022/01/07 23:47:53+0000,-40.48,-47.48,-33.63,-50.64,-51.84,-52.32
2022/01/07 23:48:45+0000,-41.56,-47.21,-33.76,-11.73,-52.15,-52.23
2022/01/07 23:49:38+0000,-40.75,-47.79,-33.17,-11.26,-52.21,-51.94
2022/01/07 23:50:30+0000,-40.78,-46.41,-33.63,-50.48,-52.25,-51.74
2022/01/07 23:51:33+0000,-40.85,-45.20,-33.28,-51.42,-52.46,-52.04
2022/01/07 23:52:25+0000,-40.95,-47.20,-33.30,-50.73,-52.94,-51.92
2022/01/07 23:53:17+0000,-41.03,-46.60,-33.29,-12.43,-51.86,-52.10
2022/01/07 23:54:10+0000,-39.42,-46.16,-33.58,-11.64,-52.45,-51.92
2022/01/07 23:55:02+0000,-40.06,-46.74,-33.17,-51.95,-52.50,-52.42
2022/01/07 23:55:54+0000,-39.39,-47.36,-33.73,-49.36,-51.83,-51.89
2022/01/07 23:56:46+0000,-40.76,-46.83,-33.49,-11.81,-52.13,-52.19
2022/01/07 23:57:38+0000,-40.79,-47.96,-33.25,-11.45,-52.49,-52.16
2022/01/07 23:58:30+0000,-38.94,-46.52,-33.00,-50.63,-52.67,-51.79
2022/01/07 23:59:22+0000,-39.34,-47.80,-33.59,-50.81,-52.27,-51.96
2022/01/08 00:00:14+0000,-40.69,-46.29,-33.30,-11.79,-52.71,-51.84
2022/01/08 00:01:22+0000,-39.46,-46.08,-33.59,-51.18,-52.12,-52.31
2022/01/08 00:02:14+0000,-40.17,-46.91,-33.67,-12.05,-52.29,-51.70
2022/01/08 00:03:06+0000,-40.53,-47.79,-33.14,-11.43,-52.12,-51.93
2022/01/08 00:03:58+0000,-40.46,-45.74,-33.36,-51.39,-52.54,-52.29
2022/01/08 00:04:50+0000,-38.87,-48.28,-33.76,-51.35,-52.17,-51.63
2022/01/08 00:05:42+0000,-40.97,-46.81,-33.73,-14.63,-51.69,-52.02
2022/01/08 00:06:34+0000,-40.16,-44.46,-33.54,-51.94,-51.94,-51.84
2022/01/08 00:07:26+0000,-40.09,-46.51,-33.79,-49.87,-52.47,-51.79
2022/01/08 00:08:18+0000,-39.41,-46.61,-33.31,-52.35,-51.61,-51.71
2022/01/08 00:09:10+0000,-40.99,-46.43,-33.50,-48.31,-51.90,-52.01
2022/01/08 00:10:03+0000,-40.10,-45.01,-33.28,-52.87,-52.54,-51.90
2022/01/08 00:11:01+0000,-40.16,-45.54,-33.61,-52.09,-52.40,-51.91
2022/01/08 00:11:53+0000,-36.84,-45.14,-33.28,-51.74,-52.02,-51.14
2022/01/08 00:12:45+0000,-41.36,-47.14,-33.31,-51.58,-52.30,-51.73
2022/01/08 00:13:37+0000,-39.50,-47.08,-33.46,-52.50,-51.86,-51.59
2022/01/08 00:14:29+0000,-39.23,-45.99,-33.61,-51.62,-52.54,-51.41
2022/01/08 00:15:21+0000,-39.47,-47.58,-33.48,-51.77,-52.20,-51.28
2022/01/08 00:16:13+0000,-38.37,-47.34,-34.10,-50.94,-51.22,-51.46
2022/01/08 00:17:05+0000,-38.64,-48.17,-33.42,-53.77,-51.92,-52.20
2022/01/08 00:17:57+0000,-39.20,-44.65,-33.57,-52.24,-52.30,-51.10
2022/01/08 00:18:49+0000,-38.98,-47.46,-33.09,-52.97,-51.97,-51.96
2022/01/08 00:19:42+0000,-39.69,-47.21,-33.31,-52.00,-51.50,-51.88
2022/01/08 00:20:34+0000,-40.00,-44.96,-32.65,-52.70,-52.25,-51.10
2022/01/08 00:21:35+0000,-40.12,-47.37,-32.88,-52.20,-52.05,-51.80
2022/01/08 00:22:27+0000,-38.03,-44.11,-33.62,-51.41,-52.25,-52.03
2022/01/08 00:23:19+0000,-39.98,-47.91,-33.08,-52.68,-51.94,-52.03
2022/01/08 00:24:11+0000,-39.85,-46.01,-33.62,-48.77,-51.76,-52.03
2022/01/08 00:25:03+0000,-40.43,-46.41,-33.42,-52.52,-51.82,-52.07
2022/01/08 00:25:55+0000,-39.63,-45.38,-32.34,-52.82,-52.38,-51.36
2022/01/08 00:26:47+0000,-39.86,-46.99,-33.00,-51.72,-51.99,-51.34
2022/01/08 00:27:39+0000,-40.30,-46.75,-33.00,-51.45,-52.31,-51.32
2022/01/08 00:28:32+0000,-40.05,-46.49,-33.34,-52.08,-52.18,-52.17
2022/01/08 00:29:24+0000,-40.19,-47.22,-32.49,-53.19,-52.03,-51.72
2022/01/08 00:30:16+0000,-40.42,-48.69,-33.15,-52.12,-51.79,-51.51
2022/01/08 00:31:24+0000,-37.74,-46.27,-32.85,-52.22,-52.24,-51.92
2022/01/08 00:32:16+0000,-40.47,-47.17,-33.12,-51.08,-52.38,-51.87
2022/01/08 00:33:08+0000,-38.98,-47.88,-33.09,-51.17,-51.94,-51.71
2022/01/08 00:34:00+0000,-40.70,-46.38,-33.21,-52.28,-52.54,-51.66
2022/01/08 00:34:52+0000,-40.70,-49.94,-33.33,-52.48,-51.70,-52.18
2022/01/08 00:35:45+0000,-40.35,-48.96,-33.49,-49.00,-51.98,-51.51
2022/01/08 00:36:37+0000,-40.13,-50.01,-33.33,-52.39,-51.93,-51.76
2022/01/08 00:37:29+0000,-40.30,-45.68,-33.03,-52.70,-52.21,-51.13
2022/01/08 00:38:21+0000,-40.87,-49.50,-32.97,-52.93,-52.10,-51.70
2022/01/08 00:39:13+0000,-39.50,-48.24,-33.43,-52.66,-52.18,-52.21
2022/01/08 00:40:06+0000,-39.38,-49.03,-33.26,-51.75,-53.10,-51.75
2022/01/08 00:41:06+0000,-40.45,-48.82,-32.78,-52.48,-52.45,-51.16
2022/01/08 00:41:58+0000,-40.06,-45.83,-33.02,-52.82,-52.55,-51.54
2022/01/08 00:42:50+0000,-39.21,-46.31,-32.10,-52.91,-52.33,-52.01
2022/01/08 00:43:42+0000,-40.10,-46.19,-33.23,-51.55,-51.72,-51.47
2022/01/08 00:44:34+0000,-39.78,-43.00,-32.92,-53.87,-52.49,-51.34
2022/01/08 00:45:26+0000,-39.24,-45.17,-33.68,-54.80,-52.52,-51.30
2022/01/08 00:46:18+0000,-40.78,-49.05,-33.64,-54.42,-52.47,-51.76
2022/01/08 00:47:10+0000,-39.44,-47.46,-32.37,-53.77,-52.58,-51.86
2022/01/08 00:48:02+0000,-39.54,-44.79,-32.59,-54.00,-52.43,-52.12
2022/01/08 00:48:54+0000,-37.43,-44.46,-32.95,-54.24,-52.30,-51.58
2022/01/08 00:49:47+0000,-39.60,-47.53,-33.20,-53.84,-52.03,-51.60
2022/01/08 00:50:39+0000,-38.96,-46.86,-33.03,-53.94,-51.97,-51.62
2022/01/08 00:51:38+0000,-38.83,-49.33,-33.03,-54.01,-52.28,-42.15
2022/01/08 00:52:30+0000,-38.84,-44.36,-32.45,-54.00,-52.38,-51.62
2022/01/08 00:53:22+0000,-38.90,-49.60,-32.51,-54.41,-52.28,-51.59
2022/01/08 00:54:14+0000,-38.80,-47.47,-33.29,-54.18,-52.47,-51.80
2022/01/08 00:55:06+0000,-39.36,-44.95,-33.10,-54.08,-52.83,-52.25
2022/01/08 00:55:58+0000,-37.45,-46.89,-32.58,-53.74,-52.39,-51.53
2022/01/08 00:56:50+0000,-37.13,-47.24,-32.77,-53.61,-52.85,-51.66
2022/01/08 00:57:42+0000,-38.34,-47.27,-32.07,-54.14,-51.74,-51.17
2022/01/08 00:58:34+0000,-38.77,-46.80,-31.70,-53.94,-52.28,-52.10
2022/01/08 00:59:26+0000,-38.32,-46.69,-33.31,-53.69,-52.43,-51.86
2022/01/08 01:00:19+0000,-39.19,-48.25,-33.19,-53.97,-51.86,-51.57
2022/01/08 01:01:23+0000,-37.58,-45.71,-32.58,-54.03,-52.33,-51.64
2022/01/08 01:02:15+0000,-39.29,-49.01,-32.92,-53.89,-52.85,-52.17
2022/01/08 01:03:07+0000,-37.50,-48.77,-32.57,-54.43,-52.44,-51.91
2022/01/08 01:03:59+0000,-40.04,-45.69,-32.72,-54.08,-52.22,-52.47
2022/01/08 01:04:51+0000,-38.67,-49.50,-33.07,-53.89,-51.45,-51.95
2022/01/08 01:05:43+0000,-40.26,-48.94,-33.09,-54.43,-52.89,-51.76
2022/01/08 01:06:35+0000,-39.72,-49.98,-32.83,-53.72,-52.33,-51.68
2022/01/08 01:07:28+0000,-39.65,-46.34,-33.05,-53.42,-51.61,-51.65
2022/01/08 01:08:20+0000,-39.72,-48.46,-33.00,-53.88,-52.41,-51.69
2022/01/08 01:09:12+0000,-38.64,-48.65,-32.53,-53.97,-52.55,-51.61
2022/01/08 01:10:04+0000,-39.30,-48.63,-32.75,-54.16,-52.33,-51.03
2022/01/08 01:11:15+0000,-39.59,-48.57,-33.13,-53.67,-52.06,-51.37
2022/01/08 01:12:07+0000,-39.17,-49.42,-33.27,-54.77,-51.78,-51.86
2022/01/08 01:12:59+0000,-39.78,-46.35,-32.61,-54.02,-52.88,-51.13
2022/01/08 01:13:51+0000,-39.86,-49.50,-32.67,-54.20,-52.31,-52.01
2022/01/08 01:14:43+0000,-39.86,-49.11,-32.77,-54.07,-51.74,-51.52
2022/01/08 01:15:35+0000,-39.29,-49.63,-32.81,-54.30,-52.11,-51.39
2022/01/08 01:16:28+0000,-39.43,-47.19,-32.73,-53.21,-51.85,-51.72
2022/01/08 01:17:20+0000,-39.27,-48.92,-33.52,-54.16,-51.94,-51.96
2022/01/08 01:18:12+0000,-38.53,-49.36,-33.83,-53.85,-51.74,-51.51
2022/01/08 01:19:04+0000,-40.53,-45.63,-33.88,-53.60,-51.98,-51.14
2022/01/08 01:19:57+0000,-39.78,-45.38,-33.91,-53.46,-52.26,-51.46
2022/01/08 01:20:49+0000,-40.03,-48.88,-33.66,-54.19,-52.33,-51.72
2022/01/08 01:21:54+0000,-39.38,-47.39,-34.15,-54.06,-51.91,-50.95
2022/01/08 01:22:46+0000,-39.36,-48.65,-33.24,-53.99,-52.07,-51.75
2022/01/08 01:23:38+0000,-37.74,-49.02,-33.35,-54.41,-51.77,-51.17
2022/01/08 01:24:30+0000,-40.65,-46.56,-33.68,-54.10,-52.48,-51.11
2022/01/08 01:25:22+0000,-39.74,-48.99,-33.67,-54.04,-52.29,-51.35
2022/01/08 01:26:14+0000,-40.46,-49.10,-33.91,-53.81,-51.87,-51.63
2022/01/08 01:27:07+0000,-38.92,-49.64,-33.24,-53.18,-51.62,-51.30
2022/01/08 01:27:59+0000,-38.77,-46.06,-33.78,-54.09,-52.40,-51.67
2022/01/08 01:28:51+0000,-39.52,-49.17,-33.36,-53.89,-52.13,-51.95
2022/01/08 01:29:43+0000,-38.66,-41.69,-33.71,-54.06,-51.86,-51.72
2022/01/08 01:30:35+0000,-38.35,-46.29,-32.91,-53.94,-52.63,-51.49
2022/01/08 01:31:55+0000,-38.28,-47.42,-33.07,-53.81,-51.88,-51.73
2022/01/08 01:32:47+0000,-38.21,-47.67,-33.14,-53.94,-52.04,-51.46
2022/01/08 01:33:39+0000,-37.43,-49.91,-32.98,-53.90,-52.14,-51.55
2022/01/08 01:34:31+0000,-38.60,-46.92,-32.70,-54.27,-51.98,-50.91
2022/01/08 01:35:23+0000,-38.42,-47.39,-32.63,-53.97,-52.19,-51.78
2022/01/08 01:36:15+0000,-38.62,-48.54,-33.52,-54.52,-52.43,-51.21
2022/01/08 01:37:08+0000,-37.76,-50.04,-33.16,-53.89,-52.58,-51.65
2022/01/08 01:38:00+0000,-39.30,-46.66,-33.45,-54.44,-52.68,-51.26
2022/01/08 01:38:52+0000,-38.48,-49.70,-32.90,-53.16,-52.11,-52.18
2022/01/08 01:39:44+0000,-38.66,-48.07,-33.09,-53.81,-51.74,-51.61
2022/01/08 01:40:36+0000,-37.95,-49.54,-32.88,-54.05,-52.54,-51.40
2022/01/08 01:41:46+0000,-39.15,-49.48,-33.07,-54.27,-52.27,-52.04
2022/01/08 01:42:38+0000,-37.17,-49.19,-33.19,-53.93,-51.97,-51.38
2022/01/08 01:43:30+0000,-39.07,-48.73,-33.17,-53.96,-52.40,-51.75
2022/01/08 01:44:22+0000,-38.18,-50.22,-33.57,-54.38,-52.35,-51.47
2022/01/08 01:45:14+0000,-38.64,-49.13,-33.01,-54.26,-51.83,-51.38
2022/01/08 01:46:07+0000,-39.11,-49.86,-32.93,-53.86,-52.34,-51.39
2022/01/08 01:46:59+0000,-36.95,-46.20,-33.09,-53.88,-52.01,-51.08
2022/01/08 01:47:51+0000,-38.19,-49.77,-33.34,-54.46,-52.18,-51.39
2022/01/08 01:48:43+0000,-38.24,-48.68,-32.91,-54.32,-52.05,-51.33
2022/01/08 01:49:35+0000,-37.68,-47.81,-33.24,-53.46,-52.09,-51.40
2022/01/08 01:50:27+0000,-36.80,-48.62,-33.13,-54.44,-52.32,-51.81
2022/01/08 01:51:38+0000,-38.33,-49.83,-33.11,-54.48,-52.43,-52.16
2022/01/08 01:52:30+0000,-37.87,-48.53,-32.41,-53.79,-52.59,-51.94
2022/01/08 01:53:22+0000,-37.80,-47.63,-33.46,-53.28,-52.33,-51.86
2022/01/08 01:54:14+0000,-38.18,-46.49,-33.20,-54.62,-51.85,-52.09
2022/01/08 01:55:06+0000,-38.79,-46.89,-32.97,-53.99,-52.13,-52.39
2022/01/08 01:55:58+0000,-38.37,-47.25,-33.62,-54.09,-51.40,-51.97
2022/01/08 01:56:50+0000,-38.25,-47.64,-32.71,-53.70,-52.07,-52.22
2022/01/08 01:57:42+0000,-38.71,-47.76,-32.68,-54.22,-52.19,-46.19
2022/01/08 01:58:34+0000,-39.10,-47.13,-33.10,-54.01,-52.72,-51.68
2022/01/08 01:59:26+0000,-39.59,-47.08,-33.83,-54.25,-51.61,-52.00
2022/01/08 02:00:18+0000,-41.17,-46.84,-32.95,-54.43,-52.28,-51.61
2022/01/08 02:01:17+0000,-39.92,-47.03,-33.31,-53.59,-51.69,-52.13
2022/01/08 02:02:09+0000,-39.53,-47.10,-32.66,-53.59,-51.57,-51.77
2022/01/08 02:03:01+0000,-38.92,-46.12,-33.26,-53.88,-51.82,-52.34
2022/01/08 02:03:53+0000,-39.34,-46.26,-33.33,-53.54,-52.21,-51.63
2022/01/08 02:04:46+0000,-40.85,-46.84,-33.59,-54.20,-48.25,-51.97
2022/01/08 02:05:38+0000,-39.01,-47.34,-34.11,-54.43,-51.92,-51.53
2022/01/08 02:06:30+0000,-40.62,-46.58,-33.34,-54.03,-52.51,-51.77
2022/01/08 02:07:22+0000,-39.83,-47.46,-32.86,-53.98,-52.23,-51.97
2022/01/08 02:08:14+0000,-40.39,-47.08,-33.22,-54.09,-52.73,-51.47
2022/01/08 02:09:06+0000,-38.96,-48.85,-33.44,-53.79,-51.94,-51.97
2022/01/08 02:09:58+0000,-40.30,-48.21,-32.97,-54.05,-52.22,-52.15
2022/01/08 02:10:50+0000,-39.88,-49.24,-33.62,-54.31,-52.26,-51.94
2022/01/08 02:11:49+0000,-40.39,-48.94,-33.25,-54.02,-52.11,-51.57
2022/01/08 02:12:41+0000,-39.29,-49.23,-32.87,-54.13,-52.65,-51.46
2022/01/08 02:13:33+0000,-40.26,-47.67,-33.10,-53.33,-52.09,-52.20
2022/01/08 02:14:25+0000,-40.51,-47.97,-33.42,-53.90,-52.69,-51.53
2022/01/08 02:15:17+0000,-39.08,-48.93,-34.14,-53.64,-53.00,-51.71
2022/01/08 02:16:09+0000,-40.35,-48.94,-33.31,-53.82,-52.54,-52.10
2022/01/08 02:17:01+0000,-40.91,-48.66,-33.49,-54.24,-52.44,-52.29
2022/01/08 02:17:53+0000,-37.79,-48.48,-33.65,-53.44,-51.84,-52.22
2022/01/08 02:18:45+0000,-41.59,-49.07,-33.17,-53.81,-51.70,-51.76
2022/01/08 02:19:37+0000,-40.36,-49.08,-32.62,-53.81,-52.34,-51.71
2022/01/08 02:20:29+0000,-41.32,-48.92,-33.94,-54.03,-52.54,-51.61
2022/01/08 02:21:41+0000,-40.85,-49.20,-33.49,-53.99,-44.71,-50.44
2022/01/08 02:22:33+0000,-39.89,-47.96,-33.32,-53.26,-44.77,-50.56
2022/01/08 02:23:25+0000,-39.31,-47.77,-33.96,-53.74,-45.18,-50.30
2022/01/08 02:24:17+0000,-38.35,-48.31,-33.88,-53.40,-45.83,-50.43
2022/01/08 02:25:09+0000,-40.27,-49.44,-33.08,-53.15,-45.53,-50.66
2022/01/08 02:26:01+0000,-40.36,-48.40,-33.79,-52.78,-44.81,-50.20
2022/01/08 02:26:53+0000,-38.53,-48.38,-33.48,-53.83,-45.80,-50.33
2022/01/08 02:27:45+0000,-40.44,-48.71,-33.46,-53.12,-45.23,-49.70
2022/01/08 02:28:37+0000,-39.76,-48.67,-33.17,-53.16,-45.11,-50.17
2022/01/08 02:29:29+0000,-39.71,-48.75,-33.53,-53.16,-45.84,-50.12
2022/01/08 02:30:21+0000,-39.20,-48.67,-33.48,-53.06,-45.65,-50.23
2022/01/08 02:31:20+0000,-38.96,-49.02,-33.28,-53.12,-45.44,-49.78
2022/01/08 02:32:12+0000,-38.65,-48.96,-33.69,-53.14,-46.26,-49.79
2022/01/08 02:33:04+0000,-39.03,-48.25,-32.99,-53.59,-45.28,-50.16
2022/01/08 02:33:56+0000,-40.21,-48.52,-33.15,-52.70,-45.35,-49.50
2022/01/08 02:34:48+0000,-40.64,-46.68,-33.91,-52.97,-45.45,-49.81
2022/01/08 02:35:40+0000,-38.80,-48.19,-34.12,-52.54,-44.95,-50.61
2022/01/08 02:36:33+0000,-38.57,-48.30,-33.72,-52.55,-45.19,-50.58
2022/01/08 02:37:25+0000,-39.64,-45.82,-33.83,-52.47,-46.03,-49.93
2022/01/08 02:38:17+0000,-40.39,-46.57,-33.61,-52.46,-45.50,-50.26
2022/01/08 02:39:09+0000,-37.87,-46.05,-33.72,-53.36,-45.00,-50.47
2022/01/08 02:40:01+0000,-40.38,-46.43,-33.78,-53.47,-45.69,-50.32
2022/01/08 02:41:10+0000,-38.03,-46.27,-34.40,-53.06,-46.02,-50.04
2022/01/08 02:42:02+0000,-39.34,-46.48,-33.80,-53.15,-45.14,-50.38
2022/01/08 02:42:54+0000,-37.64,-46.29,-33.65,-53.21,-45.86,-50.41
2022/01/08 02:43:46+0000,-40.47,-46.55,-33.55,-53.45,-45.63,-49.97
2022/01/08 02:44:38+0000,-39.75,-46.62,-34.11,-53.41,-45.91,-50.64
2022/01/08 02:45:30+0000,-39.95,-47.05,-33.70,-53.79,-45.82,-50.23
2022/01/08 02:46:22+0000,-40.18,-46.76,-34.14,-53.49,-45.88,-50.10
2022/01/08 02:47:14+0000,-39.58,-46.56,-33.45,-53.71,-45.85,-50.07
2022/01/08 02:48:06+0000,-38.56,-47.05,-33.60,-53.37,-46.36,-50.29
2022/01/08 02:48:58+0000,-38.12,-46.97,-33.59,-53.57,-45.72,-50.10
2022/01/08 02:49:51+0000,-38.98,-46.18,-34.27,-53.48,-45.76,-50.81
2022/01/08 02:50:43+0000,-39.24,-46.35,-33.69,-52.36,-45.27,-50.71
2022/01/08 02:51:41+0000,-38.16,-46.34,-33.85,-52.83,-45.87,-50.20
2022/01/08 02:52:33+0000,-38.88,-46.38,-33.48,-52.35,-45.74,-50.27
2022/01/08 02:53:26+0000,-38.40,-46.87,-33.32,-53.11,-45.83,-50.03
2022/01/08 02:54:18+0000,-38.99,-47.03,-33.82,-53.21,-46.17,-50.47
2022/01/08 02:55:10+0000,-39.22,-46.79,-33.83,-52.89,-45.94,-51.06
2022/01/08 02:56:02+0000,-40.15,-46.70,-33.98,-52.92,-45.12,-51.12
2022/01/08 02:56:54+0000,-38.95,-46.49,-33.37,-52.93,-45.91,-51.00
2022/01/08 02:57:46+0000,-40.04,-46.69,-33.71,-53.10,-45.40,-50.35
2022/01/08 02:58:38+0000,-39.37,-46.63,-33.54,-52.99,-45.70,-50.38
2022/01/08 02:59:30+0000,-39.24,-45.66,-33.97,-53.38,-45.78,-50.19
2022/01/08 03:00:23+0000,-40.00,-46.76,-33.75,-53.02,-45.99,-50.58
2022/01/08 03:01:27+0000,-39.40,-46.14,-33.18,-53.50,-45.62,-50.52
2022/01/08 03:02:19+0000,-39.73,-47.29,-34.14,-53.13,-45.49,-50.81
2022/01/08 03:03:11+0000,-38.94,-46.72,-33.87,-52.95,-40.04,-50.92
2022/01/08 03:04:03+0000,-39.64,-45.68,-33.83,-52.74,-45.61,-51.04
2022/01/08 03:04:55+0000,-38.51,-46.86,-33.84,-53.08,-45.63,-50.58
2022/01/08 03:05:47+0000,-39.17,-48.25,-33.30,-52.71,-45.44,-51.02
2022/01/08 03:06:39+0000,-37.97,-48.51,-33.89,-53.02,-46.20,-50.69
2022/01/08 03:07:31+0000,-39.42,-48.46,-33.66,-52.79,-46.05,-50.76
2022/01/08 03:08:23+0000,-38.95,-48.17,-33.71,-52.85,-46.35,-50.89
2022/01/08 03:09:15+0000,-39.71,-48.13,-33.70,-53.29,-46.06,-50.30
2022/01/08 03:10:08+0000,-38.84,-49.19,-33.77,-52.22,-45.73,-50.79
2022/01/08 03:11:11+0000,-39.80,-48.20,-33.64,-52.33,-45.80,-50.63
2022/01/08 03:12:03+0000,-39.40,-47.73,-33.33,-52.83,-45.64,-50.43
2022/01/08 03:12:55+0000,-38.42,-48.66,-33.54,-51.81,-45.50,-50.88
2022/01/08 03:13:47+0000,-39.45,-48.09,-33.66,-52.52,-45.26,-50.81
2022/01/08 03:14:39+0000,-39.01,-47.78,-33.76,-51.87,-45.14,-50.44
2022/01/08 03:15:31+0000,-39.24,-47.86,-34.16,-53.17,-45.31,-51.19
2022/01/08 03:16:23+0000,-39.88,-49.05,-33.80,-53.20,-44.83,-50.57
2022/01/08 03:17:15+0000,-40.06,-49.11,-33.56,-53.48,-45.71,-50.53
2022/01/08 03:18:07+0000,-38.33,-48.55,-33.43,-53.76,-44.53,-50.36
2022/01/08 03:18:59+0000,-39.55,-48.52,-33.46,-52.97,-45.83,-50.19
2022/01/08 03:19:52+0000,-39.61,-48.75,-33.35,-52.93,-44.80,-50.56
2022/01/08 03:20:44+0000,-38.34,-48.39,-33.17,-53.29,-45.16,-50.40
2022/01/08 03:21:47+0000,-38.71,-48.79,-33.72,-53.08,-45.63,-50.55
2022/01/08 03:22:39+0000,-38.15,-48.53,-33.23,-52.84,-45.61,-50.90
2022/01/08 03:23:31+0000,-38.43,-48.18,-32.78,-53.72,-45.84,-50.28
2022/01/08 03:24:23+0000,-37.79,-47.78,-33.15,-53.13,-45.53,-50.95
2022/01/08 03:25:15+0000,-38.68,-48.10,-33.21,-52.82,-45.28,-50.87
2022/01/08 03:26:07+0000,-37.02,-48.44,-33.52,-53.05,-45.45,-50.67
2022/01/08 03:26:59+0000,-38.30,-48.03,-34.02,-53.53,-45.63,-50.48
2022/01/08 03:27:51+0000,-38.89,-49.23,-33.72,-53.09,-45.43,-50.45
2022/01/08 03:28:43+0000,-37.87,-49.02,-33.62,-53.50,-45.06,-50.99
2022/01/08 03:29:35+0000,-37.40,-48.84,-33.35,-53.71,-45.54,-50.50
2022/01/08 03:30:28+0000,-37.64,-48.96,-33.55,-53.58,-45.45,-50.37
2022/01/08 03:31:26+0000,-38.04,-48.29,-33.57,-53.31,-46.05,-50.61
2022/01/08 03:32:18+0000,-38.51,-48.94,-34.26,-53.36,-45.77,-51.19
2022/01/08 03:33:10+0000,-37.42,-48.35,-33.84,-52.90,-45.43,-50.20
2022/01/08 03:34:03+0000,-37.43,-48.40,-33.87,-53.58,-45.14,-50.56
2022/01/08 03:34:55+0000,-37.93,-48.90,-33.97,-52.55,-45.56,-50.50
2022/01/08 03:35:47+0000,-38.24,-48.34,-34.07,-52.49,-45.72,-50.91
2022/01/08 03:36:39+0000,-37.59,-49.08,-34.32,-53.83,-45.67,-50.80
2022/01/08 03:37:31+0000,-38.79,-48.35,-33.95,-52.84,-45.16,-50.89
2022/01/08 03:38:23+0000,-38.25,-48.94,-33.59,-52.67,-46.03,-50.74
2022/01/08 03:39:15+0000,-38.28,-48.62,-33.67,-53.06,-45.90,-50.70
2022/01/08 03:40:07+0000,-36.87,-45.64,-34.13,-53.27,-45.89,-51.09
2022/01/08 03:41:05+0000,-37.08,-48.25,-33.57,-52.59,-45.40,-50.87
2022/01/08 03:41:57+0000,-37.81,-48.20,-33.94,-52.80,-45.24,-50.93
2022/01/08 03:42:49+0000,-38.43,-47.98,-34.53,-52.49,-45.52,-50.75
2022/01/08 03:43:41+0000,-36.95,-48.80,-33.96,-52.73,-45.62,-50.56
2022/01/08 03:44:33+0000,-36.87,-48.84,-34.04,-52.81,-45.48,-51.06
2022/01/08 03:45:25+0000,-37.34,-48.55,-33.81,-52.47,-45.21,-50.57
2022/01/08 03:46:17+0000,-37.70,-47.73,-33.46,-52.79,-45.02,-50.71
2022/01/08 03:47:09+0000,-37.51,-48.68,-34.07,-52.93,-45.66,-50.82
2022/01/08 03:48:01+0000,-38.11,-48.03,-33.40,-52.71,-45.95,-50.97
2022/01/08 03:48:53+0000,-38.21,-48.91,-33.03,-52.73,-46.10,-50.64
2022/01/08 03:49:46+0000,-38.99,-48.36,-33.90,-53.04,-45.58,-50.80
2022/01/08 03:50:38+0000,-38.12,-48.69,-34.05,-52.36,-45.42,-50.16
2022/01/08 03:51:36+0000,-38.77,-49.44,-33.88,-52.78,-45.87,-50.74
2022/01/08 03:52:28+0000,-38.08,-47.69,-34.16,-52.76,-45.76,-51.20
2022/01/08 03:53:20+0000,-37.94,-48.27,-33.44,-52.50,-46.03,-50.15
2022/01/08 03:54:12+0000,-37.40,-48.40,-33.84,-52.52,-45.19,-50.83
2022/01/08 03:55:04+0000,-37.50,-48.12,-33.76,-52.63,-45.65,-50.99
2022/01/08 03:55:56+0000,-37.93,-47.64,-33.75,-51.97,-45.53,-50.60
2022/01/08 03:56:48+0000,-37.76,-48.51,-33.79,-52.82,-45.35,-50.68
2022/01/08 03:57:40+0000,-36.47,-49.20,-33.45,-52.53,-45.82,-50.37
2022/01/08 03:58:32+0000,-37.25,-48.45,-33.26,-52.75,-45.37,-50.26
2022/01/08 03:59:24+0000,-37.90,-48.16,-32.89,-52.59,-45.61,-50.98
2022/01/08 04:00:17+0000,-38.80,-47.66,-32.86,-52.86,-45.45,-50.35
2022/01/08 04:01:16+0000,-37.77,-48.29,-33.21,-53.03,-46.29,-50.64
2022/01/08 04:02:08+0000,-37.19,-48.41,-33.60,-53.15,-45.55,-50.88
2022/01/08 04:03:00+0000,-39.26,-48.09,-32.78,-52.47,-45.51,-50.41
2022/01/08 04:03:52+0000,-37.29,-48.42,-33.34,-53.06,-45.52,-50.78
2022/01/08 04:04:44+0000,-39.29,-48.42,-32.76,-52.67,-45.41,-50.30
2022/01/08 04:05:36+0000,-35.71,-48.31,-33.56,-52.59,-45.93,-51.10
2022/01/08 04:06:28+0000,-38.73,-48.84,-33.69,-52.89,-45.10,-50.89
2022/01/08 04:07:20+0000,-37.66,-48.66,-33.00,-53.29,-45.61,-50.91
2022/01/08 04:08:12+0000,-36.44,-48.23,-32.74,-53.16,-45.33,-50.33
2022/01/08 04:09:04+0000,-37.48,-47.74,-33.26,-52.09,-45.23,-50.44
2022/01/08 04:09:57+0000,-38.83,-48.21,-33.19,-52.42,-45.22,-50.51
2022/01/08 04:10:49+0000,-39.12,-48.01,-32.99,-52.73,-45.91,-51.16
2022/01/08 04:11:52+0000,-38.00,-48.48,-33.75,-52.74,-45.71,-50.74
2022/01/08 04:12:44+0000,-39.22,-48.60,-33.35,-52.64,-45.44,-50.69
2022/01/08 04:13:36+0000,-36.80,-48.12,-33.16,-53.95,-45.72,-50.35
2022/01/08 04:14:28+0000,-38.66,-48.47,-33.90,-54.13,-46.04,-50.86
2022/01/08 04:15:21+0000,-37.50,-48.56,-32.25,-51.93,-45.38,-51.22
2022/01/08 04:16:13+0000,-37.38,-45.96,-33.51,-52.67,-45.38,-50.89
2022/01/08 04:17:05+0000,-36.81,-47.26,-33.01,-51.87,-45.59,-50.74
2022/01/08 04:17:57+0000,-37.08,-46.41,-33.53,-51.79,-45.54,-50.76
2022/01/08 04:18:49+0000,-37.22,-47.36,-33.43,-51.57,-45.68,-50.75
2022/01/08 04:19:41+0000,-37.21,-46.49,-33.23,-52.13,-46.35,-50.92
2022/01/08 04:20:33+0000,-36.77,-47.35,-33.53,-52.16,-45.47,-51.79
2022/01/08 04:21:53+0000,-37.37,-46.09,-33.15,-51.47,-45.55,-51.44
2022/01/08 04:22:45+0000,-38.39,-47.01,-33.05,-51.64,-45.29,-50.72
2022/01/08 04:23:37+0000,-37.15,-46.90,-33.84,-51.99,-45.60,-50.89
2022/01/08 04:24:29+0000,-39.30,-46.09,-32.97,-52.01,-45.51,-51.32
2022/01/08 04:25:21+0000,-37.38,-47.29,-32.81,-52.20,-45.51,-51.25
2022/01/08 04:26:13+0000,-38.82,-46.52,-33.46,-51.50,-45.68,-50.59
2022/01/08 04:27:05+0000,-38.68,-47.46,-33.03,-52.14,-45.52,-50.62
2022/01/08 04:27:57+0000,-37.85,-46.54,-32.98,-51.77,-46.03,-50.83
2022/01/08 04:28:49+0000,-37.56,-46.22,-33.88,-51.87,-45.52,-50.86
2022/01/08 04:29:42+0000,-37.49,-47.05,-33.47,-51.30,-45.92,-51.14
2022/01/08 04:30:34+0000,-36.56,-45.96,-33.60,-52.02,-44.96,-50.83
2022/01/08 04:31:37+0000,-37.12,-46.72,-32.85,-51.49,-45.39,-50.55
2022/01/08 04:32:29+0000,-38.46,-46.31,-33.10,-52.20,-45.72,-50.83
2022/01/08 04:33:21+0000,-40.06,-47.46,-33.30,-51.37,-45.86,-51.45
2022/01/08 04:34:13+0000,-39.13,-46.83,-33.20,-51.77,-45.41,-50.82
2022/01/08 04:35:05+0000,-38.10,-46.91,-33.72,-51.78,-46.18,-50.82
2022/01/08 04:35:57+0000,-38.73,-46.98,-33.33,-52.77,-45.70,-51.47
2022/01/08 04:36:49+0000,-37.91,-47.60,-32.77,-52.22,-45.62,-51.16
2022/01/08 04:37:41+0000,-38.35,-38.47,-33.28,-52.16,-45.92,-51.24
2022/01/08 04:38:33+0000,-39.63,-46.25,-33.48,-52.17,-45.17,-51.35
2022/01/08 04:39:25+0000,-39.67,-47.99,-33.51,-51.84,-45.79,-50.88
2022/01/08 04:40:18+0000,-38.91,-46.18,-33.42,-51.25,-45.46,-50.80
2022/01/08 04:41:16+0000,-40.16,-46.05,-33.39,-52.24,-46.37,-51.36
2022/01/08 04:42:08+0000,-38.90,-46.28,-33.34,-51.25,-45.36,-50.85
2022/01/08 04:43:00+0000,-40.71,-46.10,-33.02,-52.23,-45.68,-51.11
2022/01/08 04:43:52+0000,-38.78,-46.91,-33.57,-52.26,-45.46,-51.06
2022/01/08 04:44:44+0000,-40.98,-46.25,-33.37,-52.03,-46.49,-51.78